Location: ??????
(56.0120°N, 39.1740°E)
Time: 20:45:49
(UTC+00:00)

Cosmos 1892 Rocket - Pass Details

Date: 14 April 2026
Orbit: 599 x 626 km, 82.5° (Epoch: 11 May)

Event Time Altitude Azimuth Distance (km) Brightness Sun altitude
Rises 21:37:58 0° 345° (NNW) 2,923 8.2 -24.3°
Reaches altitude 10° 21:40:15 10° 341° (NNW) 2,008 7.1 -24.2°
Enters shadow 21:44:22 54° 277° (W) 760 3.9 -24.2°
